Location: Erp
(42.9417°N, 1.2009°E)
Time: 23:33:07
(UTC+00:00)

Cosmos 2341 Rocket - Visible Passes

Search period start: 18 April 2026 00:00
Search period end: 28 April 2026 00:00
Orbit: 968 x 1003 km, 82.9° (Epoch: 18 April)

Date Brightness Start Highest point End Pass type
(mag) Time Alt. Az. Time Alt. Az. Time Alt. Az.
18 Apr 5.2 20:33:14 10° SSW 20:39:08 43° WNW 20:45:09 10° N visible
19 Apr 4.1 19:15:48 10° SSE 19:21:51 56° E 19:28:00 10° NNE visible
19 Apr 6.2 21:02:55 10° WSW 21:07:51 24° WNW 21:12:51 10° NNW visible
20 Apr 4.2 19:43:51 10° S 19:50:07 80° W 19:56:28 10° N visible
20 Apr 6.8 21:34:06 10° W 21:36:48 13° WNW 21:39:31 10° NW visible
21 Apr 5.2 20:12:40 10° SSW 20:18:34 43° WNW 20:24:35 10° N visible
22 Apr 6.3 20:42:20 10° WSW 20:47:17 24° WNW 20:52:17 10° NNW visible
23 Apr 4.2 19:23:16 10° S 19:29:32 80° W 19:35:54 10° N visible
23 Apr 6.9 21:13:30 10° W 21:16:13 13° WNW 21:18:58 10° NW visible
24 Apr 5.3 19:52:05 10° SSW 19:58:00 43° WNW 20:04:02 10° N visible
25 Apr 6.4 20:21:44 10° WSW 20:26:43 24° WNW 20:31:44 10° NNW visible
26 Apr 7.0 20:52:54 10° W 20:55:39 13° WNW 20:58:25 10° NW visible
27 Apr 7.4 04:15:22 10° NNE 04:18:54 15° ENE 04:22:24 10° E visible
27 Apr 5.4 19:31:30 10° SSW 19:37:26 43° WNW 19:43:28 10° N visible
